QPF
0.04 0.04 0.04 0.04 0.04 0.04 0.05 0.06 0.07 0.06 0.05 0.03 0.02 0.03 0.04 0.03 0.03 0.02 0.02 0.02 0.02 0.02 0.01 0.01 0.01 0.02 0.03 0.04 0.05 0.06 0.08 0.09 0.11 0.13 0.14 0.13 0.11 0.09
0.03 0.04 0.04 0.04 0.04 0.04 0.04 0.05 0.06 0.06 0.05 0.03 0.02 0.02 0.03 0.03 0.03 0.02 0.02 0.02 0.02 0.02 0.01 0.01 0.01 0.01 0.02 0.02 0.02 0.03 0.03 0.04 0.05 0.06 0.07 0.07 0.07 0.06
0.04 0.04 0.04 0.05 0.04 0.04 0.04 0.04 0.04 0.06 0.05 0.03 0.02 0.02 0.02 0.03 0.03 0.02 0.02 0.02 0.02 0.01 0.01 0.01 0.02 0.01 0.01 0.01 0.01 0.01 0.02 0.02 0.03 0.04 0.04 0.05 0.05 0.05
0.05 0.05 0.05 0.05 0.05 0.04 0.04 0.04 0.04 0.05 0.05 0.04 0.03 0.02 0.02 0.03 0.03 0.02 0.02 0.01 0.01 0.01 0.01 0.01 0.01 0.01 0.01 0.01 0.01 0.01 0.01 0.01 0.02 0.03 0.03 0.04 0.06 0.07
0.03 0.04 0.05 0.06 0.06 0.06 0.05 0.04 0.04 0.03 0.04 0.03 0.02 0.02 0.02 0.02 0.02 0.02 0.02 0.02 0.01 0.01 0.01 0.01 0.01 0.01 0.01 0.01 0.01 0.01 0.01 0.01 0.02 0.02 0.03 0.04 0.05 0.07
0.03 0.03 0.04 0.05 0.06 0.06 0.06 0.05 0.04 0.04 0.04 0.04 0.03 0.03 0.03 0.02 0.02 0.02 0.02 0.02 0.01 0.01 0.01 0.01 0.01 0.00 0.01 0.01 0.01 0.01 0.01 0.01 0.01 0.02 0.02 0.03 0.04 0.05
0.03 0.03 0.04 0.04 0.04 0.04 0.04 0.04 0.04 0.05 0.04 0.04 0.04 0.03 0.03 0.02 0.02 0.02 0.02 0.02 0.02 0.01 0.01 0.01 0.01 0.01 0.01 0.01 0.01 0.01 0.01 0.01 0.02 0.02 0.02 0.03 0.04 0.04
0.04 0.03 0.03 0.03 0.03 0.02 0.02 0.02 0.03 0.04 0.05 0.04 0.04 0.04 0.04 0.03 0.03 0.03 0.03 0.04 0.04 0.02 0.01 0.01 0.01 0.01 0.01 0.01 0.01 0.01 0.01 0.01 0.02 0.02 0.02 0.02 0.02 0.02
0.03 0.03 0.03 0.02 0.02 0.03 0.03 0.03 0.02 0.02 0.02 0.03 0.04 0.05 0.05 0.04 0.04 0.04 0.05 0.05 0.05 0.04 0.02 0.02 0.01 0.02 0.02 0.02 0.02 0.01 0.01 0.01 0.01 0.01 0.01 0.01 0.01 0.02
0.02 0.03 0.03 0.02 0.01 0.02 0.03 0.04 0.05 0.04 0.03 0.03 0.04 0.05 0.06 0.07 0.05 0.04 0.04 0.04 0.04 0.05 0.03 0.04 0.03 0.02 0.02 0.02 0.02 0.02 0.02 0.03 0.03 0.02 0.01 0.01 0.01 0.01
0.01 0.01 0.01 0.01 0.01 0.01 0.02 0.03 0.04 0.04 0.04 0.04 0.04 0.04 0.05 0.05 0.04 0.04 0.05 0.05 0.05 0.06 0.04 0.05 0.05 0.03 0.02 0.01 0.01 0.01 0.01 0.02 0.02 0.02 0.01 0.01 0.01 0.01
0.00 0.00 0.00 0.00 0.01 0.01 0.02 0.03 0.03 0.03 0.03 0.04 0.04 0.04 0.05 0.04 0.03 0.04 0.05 0.05 0.05 0.05 0.04 0.03 0.03 0.03 0.02 0.01 0.01 0.01 0.01 0.01 0.01 0.01 0.01 0.01 0.01 0.01
0.01 0.01 0.01 0.01 0.01 0.01 0.01 0.02 0.03 0.03 0.03 0.03 0.05 0.06 0.06 0.06 0.04 0.05 0.06 0.05 0.05 0.05 0.03 0.03 0.03 0.03 0.03 0.03 0.01 0.01 0.01 0.01 0.01 0.01 0.01 0.01 0.01 0.01
0.01 0.02 0.01 0.01 0.01 0.01 0.01 0.01 0.01 0.01 0.02 0.02 0.03 0.04 0.06 0.06 0.06 0.05 0.05 0.05 0.05 0.04 0.03 0.03 0.03 0.03 0.03 0.03 0.02 0.01 0.01 0.01 0.01 0.00 0.00 0.00 0.00 0.00
0.02 0.02 0.01 0.01 0.01 0.01 0.01 0.01 0.01 0.01 0.02 0.02 0.02 0.03 0.04 0.04 0.04 0.05 0.05 0.04 0.04 0.03 0.02 0.02 0.03 0.03 0.02 0.03 0.02 0.01 0.01 0.01 0.00 0.00 0.00 0.00 0.00 0.00
0.01 0.02 0.01 0.01 0.01 0.01 0.01 0.01 0.01 0.01 0.01 0.01 0.01 0.02 0.03 0.04 0.04 0.03 0.03 0.02 0.02 0.02 0.01 0.01 0.02 0.02 0.03 0.02 0.02 0.02 0.02 0.01 0.01 0.00 0.00 0.00 0.00 0.00
0.00 0.01 0.01 0.01 0.01 0.01 0.01 0.01 0.01 0.01 0.01 0.01 0.01 0.02 0.03 0.03 0.03 0.03 0.03 0.03 0.02 0.02 0.02 0.01 0.01 0.01 0.01 0.02 0.02 0.02 0.01 0.01 0.01 0.00 0.00 0.00 0.00 0.00
0.00 0.00 0.01 0.00 0.01 0.01 0.01 0.00 0.00 0.00 0.01 0.01 0.01 0.02 0.03 0.03 0.02 0.02 0.02 0.02 0.02 0.01 0.01 0.01 0.01 0.01 0.01 0.01 0.01 0.01 0.01 0.01 0.00 0.00 0.00 0.00 0.00 0.00
0.00 0.01 0.01 0.01 0.01 0.00 0.00 0.00 0.00 0.00 0.01 0.01 0.01 0.01 0.02 0.02 0.02 0.02 0.02 0.02 0.02 0.01 0.01 0.01 0.01 0.01 0.01 0.01 0.00 0.00 0.00 0.00 0.00 0.00 0.00 0.00 0.00 0.00
0.00 0.00 0.00 0.00 0.00 0.00 0.00 0.00 0.01 0.01 0.01 0.01 0.01 0.01 0.01 0.01 0.01 0.02 0.02 0.02 0.02 0.01 0.01 0.01 0.01 0.01 0.01 0.01 0.01 0.00 0.00 0.00 0.00 0.00 0.00 0.00 0.00 0.00
0.00 0.00 0.00 0.00 0.00 0.00 0.01 0.01 0.01 0.01 0.01 0.01 0.01 0.01 0.01 0.01 0.02 0.02 0.02 0.01 0.01 0.01 0.01 0.01 0.01 0.01 0.01 0.01 0.01 0.01 0.00 0.00 0.00 0.00 0.00 0.01 0.01 0.00
0.00 0.01 0.01 0.01 0.01 0.01 0.01 0.01 0.01 0.01 0.01 0.01 0.01 0.01 0.01 0.02 0.02 0.02 0.02 0.01 0.01 0.01 0.01 0.01 0.01 0.01 0.01 0.01 0.01 0.01 0.00 0.00 0.00 0.00 0.00 0.00 0.00 0.00
0.00 0.00 0.01 0.01 0.01 0.01 0.01 0.01 0.01 0.01 0.01 0.01 0.01 0.01 0.01 0.01 0.01 0.01 0.02 0.02 0.01 0.01 0.01 0.01 0.01 0.01 0.01 0.01 0.01 0.01 0.00 0.00 0.00 0.01 0.01 0.00 0.00 0.00
MSLP
1016.84 1016.37 1015.91 1015.48 1015.14 1014.91 1014.81 1014.86 1015.04 1015.33 1015.69 1016.08 1016.46 1016.78 1017.00 1017.11 1017.11 1016.99 1016.79 1016.52 1016.23 1015.94 1015.71 1015.55 1015.50 1015.56 1015.75 1016.06 1016.48 1017.00 1017.59 1018.22 1018.86 1019.50 1020.10 1020.66 1021.16 1021.61
1016.51 1016.04 1015.56 1015.09 1014.70 1014.41 1014.27 1014.28 1014.46 1014.77 1015.18 1015.65 1016.12 1016.55 1016.89 1017.11 1017.20 1017.16 1017.03 1016.82 1016.57 1016.34 1016.15 1016.04 1016.05 1016.16 1016.41 1016.76 1017.21 1017.73 1018.30 1018.89 1019.47 1020.01 1020.52 1020.98 1021.38 1021.74
1016.15 1015.68 1015.19 1014.69 1014.24 1013.90 1013.71 1013.68 1013.84 1014.16 1014.61 1015.16 1015.73 1016.27 1016.74 1017.08 1017.29 1017.37 1017.32 1017.19 1017.02 1016.85 1016.72 1016.68 1016.73 1016.91 1017.19 1017.57 1018.03 1018.53 1019.06 1019.58 1020.07 1020.52 1020.92 1021.27 1021.57 1021.84
1015.78 1015.33 1014.82 1014.30 1013.82 1013.43 1013.18 1013.11 1013.24 1013.56 1014.05 1014.65 1015.31 1015.97 1016.55 1017.02 1017.35 1017.55 1017.61 1017.57 1017.48 1017.38 1017.32 1017.33 1017.43 1017.65 1017.96 1018.35 1018.80 1019.28 1019.75 1020.21 1020.61 1020.97 1021.27 1021.51 1021.72 1021.89
1015.42 1014.98 1014.48 1013.94 1013.43 1013.00 1012.71 1012.60 1012.71 1013.02 1013.52 1014.16 1014.89 1015.63 1016.31 1016.89 1017.34 1017.64 1017.80 1017.85 1017.84 1017.81 1017.81 1017.87 1018.01 1018.25 1018.57 1018.97 1019.40 1019.85 1020.28 1020.67 1021.01 1021.28 1021.50 1021.67 1021.80 1021.91
1015.06 1014.64 1014.14 1013.61 1013.09 1012.64 1012.32 1012.18 1012.26 1012.55 1013.05 1013.71 1014.47 1015.26 1016.01 1016.67 1017.20 1017.59 1017.83 1017.97 1018.02 1018.05 1018.09 1018.19 1018.36 1018.61 1018.93 1019.32 1019.74 1020.15 1020.55 1020.90 1021.19 1021.43 1021.60 1021.72 1021.81 1021.87
1014.70 1014.29 1013.81 1013.30 1012.78 1012.34 1012.01 1011.86 1011.91 1012.19 1012.66 1013.31 1014.07 1014.88 1015.66 1016.36 1016.94 1017.38 1017.68 1017.87 1017.97 1018.04 1018.11 1018.23 1018.41 1018.66 1018.98 1019.35 1019.75 1020.15 1020.53 1020.86 1021.14 1021.35 1021.51 1021.62 1021.68 1021.71
1014.35 1013.95 1013.50 1013.02 1012.54 1012.12 1011.81 1011.66 1011.70 1011.95 1012.40 1013.01 1013.74 1014.52 1015.29 1015.99 1016.57 1017.03 1017.36 1017.57 1017.70 1017.79 1017.88 1018.00 1018.18 1018.42 1018.73 1019.08 1019.47 1019.85 1020.22 1020.55 1020.82 1021.04 1021.21 1021.32 1021.39 1021.41
1014.03 1013.66 1013.24 1012.81 1012.39 1012.02 1011.74 1011.61 1011.65 1011.88 1012.29 1012.85 1013.52 1014.24 1014.95 1015.61 1016.16 1016.60 1016.92 1017.14 1017.27 1017.36 1017.45 1017.56 1017.73 1017.95 1018.24 1018.57 1018.93 1019.30 1019.66 1019.99 1020.27 1020.51 1020.69 1020.81 1020.88 1020.90
1013.83 1013.47 1013.10 1012.73 1012.38 1012.08 1011.87 1011.77 1011.82 1012.03 1012.39 1012.88 1013.46 1014.09 1014.72 1015.30 1015.79 1016.18 1016.47 1016.66 1016.78 1016.86 1016.93 1017.03 1017.17 1017.36 1017.61 1017.91 1018.24 1018.59 1018.93 1019.24 1019.53 1019.76 1019.95 1020.07 1020.14 1020.16
1013.78 1013.45 1013.13 1012.83 1012.56 1012.34 1012.20 1012.15 1012.21 1012.40 1012.71 1013.12 1013.61 1014.13 1014.65 1015.12 1015.53 1015.85 1016.08 1016.23 1016.32 1016.38 1016.43 1016.50 1016.61 1016.77 1016.98 1017.23 1017.51 1017.81 1018.11 1018.39 1018.65 1018.86 1019.02 1019.13 1019.19 1019.18
1013.94 1013.63 1013.36 1013.13 1012.94 1012.80 1012.73 1012.72 1012.80 1012.97 1013.23 1013.55 1013.94 1014.34 1014.74 1015.11 1015.42 1015.66 1015.82 1015.93 1015.98 1016.01 1016.04 1016.08 1016.15 1016.26 1016.41 1016.60 1016.82 1017.06 1017.29 1017.51 1017.71 1017.87 1017.98 1018.05 1018.07 1018.03
1014.26 1013.98 1013.76 1013.59 1013.47 1013.40 1013.39 1013.42 1013.51 1013.66 1013.87 1014.11 1014.39 1014.68 1014.96 1015.22 1015.43 1015.59 1015.69 1015.75 1015.78 1015.78 1015.78 1015.79 1015.82 1015.88 1015.98 1016.10 1016.24 1016.39 1016.53 1016.67 1016.78 1016.86 1016.90 1016.91 1016.87 1016.80
1014.69 1014.43 1014.24 1014.11 1014.05 1014.04 1014.07 1014.13 1014.23 1014.36 1014.51 1014.69 1014.87 1015.06 1015.23 1015.39 1015.51 1015.60 1015.65 1015.68 1015.67 1015.66 1015.64 1015.62 1015.62 1015.64 1015.67 1015.72 1015.77 1015.83 1015.87 1015.91 1015.92 1015.90 1015.86 1015.79 1015.69 1015.58
1015.09 1014.84 1014.67 1014.58 1014.55 1014.57 1014.63 1014.71 1014.81 1014.92 1015.03 1015.14 1015.25 1015.35 1015.44 1015.52 1015.58 1015.61 1015.63 1015.63 1015.61 1015.59 1015.56 1015.53 1015.50 1015.48 1015.46 1015.44 1015.41 1015.38 1015.32 1015.26 1015.17 1015.06 1014.93 1014.78 1014.63 1014.49
1015.35 1015.09 1014.92 1014.84 1014.83 1014.87 1014.94 1015.03 1015.13 1015.22 1015.30 1015.37 1015.42 1015.47 1015.50 1015.52 1015.53 1015.54 1015.53 1015.52 1015.51 1015.48 1015.46 1015.43 1015.39 1015.34 1015.28 1015.20 1015.11 1015.00 1014.86 1014.71 1014.53 1014.34 1014.14 1013.94 1013.75 1013.58
1015.35 1015.08 1014.90 1014.82 1014.80 1014.85 1014.93 1015.02 1015.12 1015.20 1015.26 1015.30 1015.32 1015.33 1015.33 1015.32 1015.31 1015.31 1015.30 1015.30 1015.30 1015.29 1015.28 1015.25 1015.21 1015.15 1015.06 1014.95 1014.81 1014.64 1014.45 1014.23 1013.99 1013.74 1013.50 1013.26 1013.05 1012.88
1015.05 1014.77 1014.58 1014.48 1014.46 1014.50 1014.58 1014.67 1014.77 1014.85 1014.91 1014.94 1014.95 1014.95 1014.94 1014.92 1014.91 1014.91 1014.91 1014.93 1014.94 1014.95 1014.96 1014.95 1014.91 1014.85 1014.75 1014.62 1014.45 1014.25 1014.02 1013.76 1013.50 1013.22 1012.95 1012.71 1012.50 1012.33
1014.50 1014.20 1014.00 1013.89 1013.86 1013.90 1013.98 1014.08 1014.18 1014.26 1014.32 1014.36 1014.38 1014.38 1014.37 1014.36 1014.36 1014.37 1014.39 1014.42 1014.45 1014.48 1014.50 1014.50 1014.47 1014.41 1014.31 1014.16 1013.98 1013.77 1013.52 1013.26 1012.98 1012.70 1012.43 1012.19 1012.00 1011.85
1013.80 1013.50 1013.29 1013.17 1013.14 1013.18 1013.26 1013.36 1013.47 1013.56 1013.63 1013.68 1013.71 1013.71 1013.71 1013.71 1013.72 1013.74 1013.77 1013.81 1013.86 1013.89 1013.92 1013.92 1013.89 1013.83 1013.72 1013.57 1013.39 1013.16 1012.92 1012.65 1012.38 1012.11 1011.86 1011.64 1011.46 1011.33
1013.06 1012.77 1012.56 1012.45 1012.42 1012.46 1012.55 1012.66 1012.77 1012.87 1012.95 1013.01 1013.04 1013.06 1013.06 1013.07 1013.07 1013.09 1013.12 1013.16 1013.20 1013.23 1013.25 1013.24 1013.20 1013.12 1013.00 1012.85 1012.65 1012.43 1012.18 1011.92 1011.66 1011.41 1011.17 1010.97 1010.80 1010.68
1012.39 1012.12 1011.94 1011.84 1011.82 1011.86 1011.95 1012.06 1012.18 1012.28 1012.37 1012.42 1012.46 1012.47 1012.47 1012.47 1012.47 1012.47 1012.49 1012.51 1012.53 1012.54 1012.53 1012.50 1012.44 1012.33 1012.19 1012.02 1011.81 1011.58 1011.33 1011.07 1010.82 1010.58 1010.36 1010.16 1010.00 1009.87
1011.85 1011.61 1011.45 1011.37 1011.36 1011.41 1011.50 1011.61 1011.72 1011.82 1011.90 1011.95 1011.97 1011.97 1011.95 1011.93 1011.91 1011.89 1011.88 1011.87 1011.86 1011.84 1011.80 1011.73 1011.63 1011.50 1011.33 1011.13 1010.90 1010.65 1010.40 1010.14 1009.89 1009.65 1009.43 1009.24 1009.06 1008.92
Thickness
5598 5597 5597 5598 5598 5598 5597 5597 5596 5598 5600 5600 5601 5601 5601 5602 5603 5605 5608 5609 5611 5614 5617 5620 5623 5625 5627 5629 5632 5634 5636 5637 5639 5640 5640 5640 5640 5639
5591 5590 5590 5592 5592 5592 5592 5593 5592 5592 5593 5595 5595 5595 5594 5596 5596 5598 5601 5602 5604 5607 5609 5612 5614 5617 5619 5621 5624 5626 5628 5629 5631 5632 5632 5633 5633 5632
5586 5586 5585 5585 5586 5587 5588 5588 5588 5587 5587 5588 5589 5589 5588 5589 5591 5593 5595 5597 5599 5600 5602 5604 5607 5609 5611 5613 5616 5618 5620 5621 5623 5624 5624 5625 5624 5624
5580 5579 5579 5580 5580 5580 5581 5582 5582 5582 5582 5581 5583 5583 5583 5584 5585 5587 5589 5592 5594 5594 5596 5597 5599 5601 5603 5606 5608 5610 5611 5613 5614 5615 5616 5616 5615 5615
5574 5573 5573 5573 5573 5574 5575 5576 5577 5578 5578 5577 5578 5578 5579 5580 5581 5583 5585 5586 5589 5590 5590 5592 5593 5594 5596 5598 5600 5602 5604 5605 5606 5607 5607 5607 5607 5607
5569 5568 5568 5568 5568 5568 5569 5570 5571 5571 5572 5573 5574 5574 5574 5575 5577 5579 5580 5582 5585 5587 5587 5588 5588 5589 5591 5592 5594 5595 5596 5597 5598 5599 5600 5600 5600 5599
5565 5564 5563 5561 5560 5560 5563 5564 5565 5566 5568 5569 5570 5571 5571 5570 5573 5575 5577 5579 5581 5583 5584 5585 5587 5588 5588 5587 5588 5589 5590 5591 5591 5592 5592 5592 5592 5592
5561 5560 5559 5559 5557 5555 5556 5557 5558 5560 5563 5563 5565 5566 5566 5567 5568 5571 5572 5574 5576 5579 5580 5582 5584 5585 5585 5586 5584 5584 5584 5584 5585 5585 5585 5585 5585 5585
5557 5556 5556 5556 5554 5555 5554 5553 5554 5554 5554 5557 5560 5561 5563 5564 5564 5567 5568 5570 5572 5574 5576 5577 5580 5580 5582 5582 5580 5579 5579 5579 5579 5579 5579 5579 5579 5578
5555 5554 5553 5552 5552 5550 5552 5554 5554 5554 5554 5554 5556 5558 5559 5560 5561 5563 5564 5566 5568 5571 5572 5573 5575 5576 5578 5578 5576 5576 5575 5575 5574 5574 5573 5573 5573 5573
5554 5552 5550 5550 5545 5544 5548 5550 5552 5553 5552 5551 5552 5553 5553 5555 5556 5558 5561 5565 5567 5570 5571 5571 5572 5573 5574 5575 5574 5572 5572 5571 5570 5570 5569 5569 5568 5568
5554 5552 5547 5545 5543 5542 5546 5548 5550 5551 5552 5553 5552 5552 5553 5554 5554 5556 5560 5563 5566 5567 5568 5568 5570 5571 5572 5574 5574 5572 5570 5569 5568 5567 5566 5565 5564 5564
5555 5553 5550 5544 5542 5542 5542 5545 5546 5547 5549 5552 5553 5554 5555 5555 5556 5557 5558 5560 5562 5565 5566 5566 5567 5568 5569 5571 5572 5572 5571 5570 5567 5566 5563 5562 5561 5559
5551 5551 5549 5544 5542 5542 5543 5544 5544 5544 5549 5551 5553 5554 5555 5555 5555 5556 5556 5557 5557 5559 5560 5560 5563 5563 5564 5566 5569 5570 5569 5568 5568 5567 5565 5562 5559 5558
5551 5548 5546 5545 5544 5546 5545 5544 5544 5548 5550 5551 5552 5554 5555 5555 5555 5554 5555 5555 5555 5557 5558 5557 5558 5560 5561 5563 5564 5566 5566 5566 5566 5565 5564 5563 5561 5559
5554 5552 5549 5548 5548 5548 5549 5550 5551 5552 5553 5553 5554 5555 5555 5555 5555 5555 5555 5556 5557 5558 5558 5558 5557 5556 5557 5559 5561 5562 5563 5563 5564 5563 5563 5561 5560 5559
5553 5556 5558 5558 5558 5558 5557 5557 5556 5555 5555 5554 5555 5555 5555 5555 5556 5556 5555 5555 5556 5557 5558 5557 5557 5556 5556 5556 5558 5560 5560 5561 5561 5560 5558 5558 5559 5558
5552 5560 5561 5561 5560 5560 5559 5559 5559 5558 5557 5556 5555 5555 5555 5555 5555 5556 5555 5555 5556 5557 5558 5558 5558 5557 5557 5560 5556 5557 5558 5558 5559 5557 5556 5556 5557 5557
5558 5564 5564 5564 5563 5562 5561 5561 5561 5560 5558 5557 5556 5555 5555 5555 5555 5555 5555 5555 5556 5557 5558 5558 5558 5556 5556 5558 5560 5555 5556 5556 5555 5555 5555 5554 5555 5555
5567 5568 5568 5567 5566 5565 5565 5564 5563 5562 5560 5559 5558 5557 5556 5556 5556 5555 5555 5555 5555 5556 5557 5558 5557 5556 5554 5555 5557 5556 5552 5553 5552 5552 5552 5552 5552 5550
5574 5573 5572 5571 5569 5568 5567 5566 5564 5563 5562 5560 5559 5557 5557 5556 5556 5555 5555 5553 5552 5554 5554 5556 5556 5553 5554 5553 5553 5555 5555 5550 5549 5547 5547 5547 5547 5547
5577 5576 5574 5573 5572 5570 5569 5567 5566 5564 5563 5562 5560 5558 5558 5557 5556 5554 5554 5554 5553 5554 5555 5555 5554 5553 5551 5551 5551 5552 5552 5550 5547 5543 5541 5540 5539 5540
5578 5577 5575 5574 5574 5571 5570 5570 5567 5566 5564 5562 5561 5560 5558 5557 5555 5554 5553 5553 5553 5553 5553 5553 5553 5551 5551 5551 5549 5549 5549 5548 5547 5545 5543 5539 5534 5531